View from above orbital plane
|
View from above satellite
|
Ground track
|
The orbit data is extracted from the following two-line orbital elements,
1 25407U 98045B 18112.40422075 -.00000082 +00000-0 -17418-4 0 9998
2 25407 071.0079 111.6169 0005563 099.1016 261.0737 14.15772960019686
Epoch (UTC): | 22 April 2018 09:42:04 |
Eccentricity: | 0.0005563 |
inclination: | 71.0079° |
perigee height: | 835 km |
apogee height: | 844 km |
right ascension of ascending node: | 111.6169° |
argument of perigee: | 99.1016° |
revolutions per day: | 14.15772960 |
mean anomaly at epoch: | 261.0737° |
orbit number at epoch: | 1968 |
The dashed part of the orbit path shows where the satellite is in the earth's shadow,
|
|